EWG122 EDDH-EDDM

Flight info

Callsign EWG122
Flight time 1h 20m
Altitude 35000
Route AMLUH2C/05 AMLUH M852 DENIX DCT ZUCKA DCT SODRO/N0443F310 T703 LULAR/N0433F300 T105 LANDU LANDU2B
Aircraft A20N/M-SDE2E3FGHIRWXY/LB1

Departure

Time 2026-05-07 11:22
Airport Hamburg Helmut Schmidt Airport (EDDH)

Arrival

Time 2026-05-07 12:43
Airport Munich Airport (EDDM)
Time Latitude Longitude Altitude Speed Heading
2026-05-07 10:56 53.63197 10.00389 49 ft 0 kts 86°
2026-05-07 11:08 53.63197 10.00382 49 ft 2 kts 86°
2026-05-07 11:08 53.63196 10.00340 49 ft 6 kts 86°
2026-05-07 11:08 53.63192 10.00238 48 ft 10 kts 82°
2026-05-07 11:09 53.63162 10.00182 45 ft 0 kts
2026-05-07 11:11 53.63203 10.00181 46 ft 13 kts 355°
2026-05-07 11:11 53.63283 10.00146 48 ft 3 kts 295°
2026-05-07 11:11 53.63243 10.00015 49 ft 10 kts 220°
2026-05-07 11:11 53.63134 9.99908 45 ft 14 kts 189°
2026-05-07 11:12 53.63060 9.99920 44 ft 10 kts 170°
2026-05-07 11:12 53.62977 9.99976 46 ft 15 kts 154°
2026-05-07 11:12 53.62903 9.99926 45 ft 6 kts 236°
2026-05-07 11:12 53.62898 9.99914 45 ft 0 kts 240°
2026-05-07 11:17 53.62891 9.99891 45 ft 4 kts 240°
2026-05-07 11:17 53.62856 9.99801 46 ft 14 kts 222°
2026-05-07 11:17 53.62768 9.99831 46 ft 16 kts 157°
2026-05-07 11:17 53.62660 9.99813 42 ft 18 kts 225°
2026-05-07 11:18 53.62619 9.99585 43 ft 23 kts 260°
2026-05-07 11:18 53.62604 9.99453 42 ft 0 kts 258°
2026-05-07 11:19 53.62603 9.99446 43 ft 4 kts 259°
2026-05-07 11:19 53.62577 9.99210 42 ft 31 kts 259°
2026-05-07 11:19 53.62539 9.98866 45 ft 6 kts 260°
2026-05-07 11:20 53.62538 9.98860 45 ft 0 kts 259°
2026-05-07 11:20 53.62530 9.98805 45 ft 20 kts 258°
2026-05-07 11:20 53.62489 9.98458 45 ft 37 kts 259°
2026-05-07 11:20 53.62433 9.98117 41 ft 29 kts 242°
2026-05-07 11:21 53.62294 9.97820 43 ft 32 kts 230°
2026-05-07 11:21 53.62183 9.97551 42 ft 21 kts 258°
2026-05-07 11:21 53.62206 9.97420 43 ft 0 kts 310°
2026-05-07 11:21 53.62207 9.97419 43 ft 2 kts 312°
2026-05-07 11:22 53.62321 9.97383 45 ft 31 kts 27°
2026-05-07 11:22 53.62573 9.97883 45 ft 99 kts 50°
2026-05-07 11:22 53.63171 9.99099 166 ft 160 kts 51°
2026-05-07 11:22 53.63942 10.00638 1035 ft 184 kts 50°
2026-05-07 11:23 53.64774 10.02302 2283 ft 192 kts 51°
2026-05-07 11:23 53.65654 10.04097 3226 ft 207 kts 52°
2026-05-07 11:23 53.66613 10.06068 4054 ft 229 kts 52°
2026-05-07 11:23 53.67649 10.08202 4601 ft 239 kts 52°
2026-05-07 11:24 53.68713 10.10383 4902 ft 241 kts 52°
2026-05-07 11:24 53.69659 10.12691 5228 ft 241 kts 67°
2026-05-07 11:24 53.69991 10.15600 5635 ft 264 kts 92°
2026-05-07 11:24 53.69475 10.18577 6036 ft 270 kts 119°
2026-05-07 11:25 53.68165 10.20873 6422 ft 280 kts 146°
2026-05-07 11:25 53.66368 10.22169 6792 ft 285 kts 160°
2026-05-07 11:25 53.64452 10.23068 7167 ft 286 kts 163°
2026-05-07 11:25 53.62520 10.23879 7542 ft 288 kts 163°
2026-05-07 11:26 53.60560 10.24701 7919 ft 289 kts 163°
2026-05-07 11:26 53.58600 10.25541 8317 ft 291 kts 163°
2026-05-07 11:26 53.56636 10.26401 8705 ft 294 kts 163°
2026-05-07 11:26 53.54658 10.27280 9093 ft 295 kts 163°
2026-05-07 11:27 53.52670 10.28168 9479 ft 296 kts 164°
2026-05-07 11:27 53.50684 10.29053 9877 ft 290 kts 164°
2026-05-07 11:27 53.48750 10.29914 10034 ft 287 kts 164°
2026-05-07 11:27 53.46810 10.30778 10070 ft 288 kts 163°
2026-05-07 11:28 53.44848 10.31650 10069 ft 297 kts 163°
2026-05-07 11:28 53.42811 10.32556 10069 ft 325 kts 163°
2026-05-07 11:28 53.40594 10.33537 10064 ft 332 kts 164°
2026-05-07 11:28 53.38360 10.34519 10060 ft 325 kts 163°
2026-05-07 11:29 53.36255 10.35443 10062 ft 308 kts 163°
2026-05-07 11:29 53.34242 10.36326 10061 ft 291 kts 163°
2026-05-07 11:29 53.32328 10.37166 10054 ft 282 kts 163°
2026-05-07 11:29 53.30321 10.38055 10058 ft 318 kts 163°
2026-05-07 11:30 53.28122 10.39029 10054 ft 328 kts 163°
2026-05-07 11:30 53.25971 10.39969 10053 ft 311 kts 163°
2026-05-07 11:30 53.23939 10.40854 10055 ft 293 kts 163°
2026-05-07 11:30 53.22023 10.41689 10053 ft 278 kts 163°
2026-05-07 11:31 53.20123 10.42523 10057 ft 287 kts 163°
2026-05-07 11:31 53.18080 10.43423 10059 ft 322 kts 163°
2026-05-07 11:31 53.15871 10.44391 10055 ft 330 kts 164°
2026-05-07 11:31 53.13659 10.45354 10054 ft 326 kts 164°
2026-05-07 11:32 53.11565 10.46108 10052 ft 309 kts 168°
2026-05-07 11:32 53.10631 10.46391 10053 ft 301 kts 168°
2026-05-07 11:32 53.08626 10.47007 10056 ft 285 kts 168°
2026-05-07 11:33 53.06704 10.47606 10054 ft 283 kts 168°
2026-05-07 11:33 53.04681 10.48244 10062 ft 314 kts 168°
2026-05-07 11:33 53.02460 10.48943 10056 ft 330 kts 168°
2026-05-07 11:33 53.00207 10.49644 10054 ft 327 kts 168°
2026-05-07 11:34 53.00002 10.49707 10056 ft 327 kts 168°
2026-05-07 11:34 52.99585 10.49837 10051 ft 326 kts 168°
2026-05-07 11:34 52.97444 10.50499 10055 ft 309 kts 168°
2026-05-07 11:34 52.95390 10.51132 10053 ft 291 kts 168°
2026-05-07 11:35 52.93458 10.51728 10051 ft 274 kts 168°
2026-05-07 11:35 52.91582 10.52310 10058 ft 286 kts 168°
2026-05-07 11:35 52.89493 10.52962 10055 ft 322 kts 168°
2026-05-07 11:35 52.87253 10.53659 10054 ft 330 kts 168°
2026-05-07 11:36 52.85038 10.54343 10052 ft 316 kts 169°
2026-05-07 11:36 52.82940 10.54988 10055 ft 298 kts 169°
2026-05-07 11:36 52.80940 10.55602 10055 ft 280 kts 169°
2026-05-07 11:36 52.79078 10.56174 10055 ft 277 kts 169°
2026-05-07 11:37 52.77049 10.56800 10056 ft 316 kts 169°
2026-05-07 11:37 52.74822 10.57486 10050 ft 329 kts 169°
2026-05-07 11:37 52.72596 10.58168 10051 ft 321 kts 169°
2026-05-07 11:37 52.70438 10.58828 10049 ft 313 kts 169°
2026-05-07 11:38 52.68316 10.59480 10050 ft 305 kts 169°
2026-05-07 11:38 52.66279 10.60105 10050 ft 290 kts 169°
2026-05-07 11:38 52.64352 10.60695 10048 ft 274 kts 169°
2026-05-07 11:38 52.62442 10.61277 10054 ft 296 kts 169°
2026-05-07 11:39 52.60291 10.61931 10053 ft 326 kts 169°
2026-05-07 11:39 52.58057 10.62612 10051 ft 325 kts 170°
2026-05-07 11:39 52.55892 10.63273 10052 ft 307 kts 170°
2026-05-07 11:39 52.53851 10.63896 10051 ft 289 kts 170°
2026-05-07 11:40 52.51929 10.64480 10053 ft 277 kts 170°
2026-05-07 11:40 52.49949 10.65079 10053 ft 309 kts 170°
2026-05-07 11:40 52.47741 10.65745 10054 ft 329 kts 170°
2026-05-07 11:40 52.45495 10.66426 10051 ft 327 kts 170°
2026-05-07 11:41 52.43288 10.67094 10050 ft 317 kts 170°
2026-05-07 11:41 52.41176 10.67734 10053 ft 301 kts 170°
2026-05-07 11:41 52.39173 10.68342 10053 ft 285 kts 170°
2026-05-07 11:41 52.37265 10.68919 10052 ft 278 kts 171°
2026-05-07 11:42 52.35233 10.69528 10059 ft 317 kts 171°
2026-05-07 11:42 52.33000 10.70197 10055 ft 330 kts 170°
2026-05-07 11:42 52.30758 10.70874 10053 ft 322 kts 170°
2026-05-07 11:42 52.28617 10.71520 10054 ft 305 kts 170°
2026-05-07 11:43 52.26585 10.72132 10049 ft 287 kts 170°
2026-05-07 11:43 52.24660 10.72710 10051 ft 281 kts 171°
2026-05-07 11:43 52.22649 10.73310 10055 ft 314 kts 171°
2026-05-07 11:43 52.20427 10.73970 10053 ft 331 kts 170°
2026-05-07 11:44 52.18197 10.74638 10050 ft 322 kts 170°
2026-05-07 11:44 52.16024 10.75291 10047 ft 305 kts 170°
2026-05-07 11:44 52.14026 10.75891 10047 ft 287 kts 170°
2026-05-07 11:44 52.12085 10.76471 10050 ft 289 kts 171°
2026-05-07 11:45 52.09938 10.77106 10048 ft 327 kts 170°
2026-05-07 11:45 52.07668 10.77779 10044 ft 332 kts 170°
2026-05-07 11:45 52.05438 10.78444 10041 ft 325 kts 170°
2026-05-07 11:45 52.03273 10.79089 10038 ft 307 kts 171°
2026-05-07 11:46 52.01230 10.79697 10037 ft 290 kts 171°
2026-05-07 11:46 51.99270 10.80279 10040 ft 292 kts 171°
2026-05-07 11:46 51.97125 10.80909 10039 ft 329 kts 171°
2026-05-07 11:46 51.94849 10.81580 10036 ft 334 kts 171°
2026-05-07 11:47 51.92599 10.82248 10035 ft 321 kts 170°
2026-05-07 11:47 51.90464 10.82882 10036 ft 303 kts 171°
2026-05-07 11:47 51.88448 10.83479 10037 ft 287 kts 171°
2026-05-07 11:47 51.86444 10.84068 10036 ft 309 kts 171°
2026-05-07 11:48 51.84984 10.84494 10037 ft 331 kts 171°
2026-05-07 11:48 51.84770 10.84556 10037 ft 332 kts 171°
2026-05-07 11:48 51.82841 10.85121 10031 ft 336 kts 171°
2026-05-07 11:48 51.80572 10.85790 10033 ft 323 kts 171°
2026-05-07 11:49 51.78423 10.86425 10030 ft 306 kts 171°
2026-05-07 11:49 51.76385 10.87026 10032 ft 289 kts 171°
2026-05-07 11:49 51.74378 10.87614 10034 ft 310 kts 171°
2026-05-07 11:49 51.72149 10.88263 10030 ft 335 kts 171°
2026-05-07 11:50 51.69870 10.88930 10029 ft 328 kts 170°
2026-05-07 11:50 51.67689 10.89678 10029 ft 311 kts 164°
2026-05-07 11:50 51.65737 10.90917 10031 ft 294 kts 154°
2026-05-07 11:50 51.63937 10.92370 10034 ft 291 kts 154°
2026-05-07 11:51 51.61992 10.93915 10037 ft 329 kts 154°
2026-05-07 11:51 51.59905 10.95561 10026 ft 333 kts 154°
2026-05-07 11:51 51.57875 10.97162 10024 ft 317 kts 154°
2026-05-07 11:51 51.55958 10.98675 10029 ft 300 kts 155°
2026-05-07 11:52 51.54098 11.00140 10023 ft 297 kts 154°
2026-05-07 11:52 51.52259 11.01587 10029 ft 293 kts 154°
2026-05-07 11:52 51.50334 11.03099 10028 ft 327 kts 154°
2026-05-07 11:52 51.48237 11.04745 10017 ft 335 kts 154°
2026-05-07 11:53 51.46199 11.06346 10021 ft 317 kts 154°
2026-05-07 11:53 51.44300 11.07837 10018 ft 299 kts 154°
2026-05-07 11:53 51.42459 11.09282 10023 ft 288 kts 154°
2026-05-07 11:53 51.40563 11.10764 10024 ft 323 kts 154°
2026-05-07 11:54 51.38475 11.12392 10018 ft 338 kts 154°
2026-05-07 11:54 51.36411 11.14003 10017 ft 321 kts 154°
2026-05-07 11:54 51.34464 11.15525 10018 ft 303 kts 154°
2026-05-07 11:54 51.32650 11.16942 10016 ft 287 kts 154°
2026-05-07 11:55 51.30797 11.18385 10023 ft 315 kts 154°
2026-05-07 11:55 51.28729 11.19993 10014 ft 340 kts 154°
2026-05-07 11:55 51.26605 11.21644 10014 ft 335 kts 154°
2026-05-07 11:55 51.24565 11.23229 10012 ft 317 kts 154°
2026-05-07 11:56 51.22639 11.24724 10008 ft 299 kts 154°
2026-05-07 11:56 51.20818 11.26136 10016 ft 287 kts 154°
2026-05-07 11:56 51.18981 11.27558 10056 ft 305 kts 154°
2026-05-07 11:56 51.16962 11.29118 10090 ft 335 kts 154°
2026-05-07 11:57 51.14852 11.30749 10110 ft 338 kts 154°
2026-05-07 11:57 51.12736 11.32383 10130 ft 338 kts 154°
2026-05-07 11:57 51.10623 11.34014 10145 ft 338 kts 154°
2026-05-07 11:57 51.08522 11.35635 10126 ft 330 kts 155°
2026-05-07 11:58 51.06509 11.37186 10079 ft 314 kts 155°
2026-05-07 11:58 51.04593 11.38661 10025 ft 298 kts 155°
2026-05-07 11:58 51.02773 11.40060 9972 ft 287 kts 155°
2026-05-07 11:58 51.00953 11.41455 9983 ft 292 kts 155°
2026-05-07 11:59 50.99124 11.42857 9998 ft 292 kts 155°
2026-05-07 11:59 50.97303 11.44254 10005 ft 290 kts 155°
2026-05-07 11:59 50.95487 11.45646 10003 ft 290 kts 155°
2026-05-07 11:59 50.93672 11.47035 9994 ft 290 kts 155°
2026-05-07 12:00 50.91854 11.48424 9996 ft 290 kts 156°
2026-05-07 12:00 50.90039 11.49812 9990 ft 290 kts 156°
2026-05-07 12:00 50.88223 11.51198 9991 ft 289 kts 156°
2026-05-07 12:00 50.86416 11.52575 9982 ft 289 kts 156°
2026-05-07 12:01 50.84596 11.53961 9981 ft 290 kts 156°
2026-05-07 12:01 50.82783 11.55342 9983 ft 289 kts 156°
2026-05-07 12:01 50.80973 11.56719 9977 ft 289 kts 156°
2026-05-07 12:01 50.79155 11.58100 9974 ft 289 kts 156°
2026-05-07 12:02 50.77345 11.59473 9970 ft 289 kts 156°
2026-05-07 12:02 50.75535 11.60845 9969 ft 289 kts 156°
2026-05-07 12:02 50.73728 11.62213 9969 ft 288 kts 156°
2026-05-07 12:02 50.71918 11.63584 9964 ft 288 kts 156°
2026-05-07 12:03 50.70111 11.64951 9968 ft 288 kts 156°
2026-05-07 12:03 50.68304 11.66317 9968 ft 288 kts 156°
2026-05-07 12:03 50.66502 11.67677 9961 ft 287 kts 156°
2026-05-07 12:03 50.64725 11.69017 9960 ft 287 kts 156°
2026-05-07 12:04 50.62925 11.70373 9955 ft 286 kts 156°
2026-05-07 12:04 50.61127 11.71727 9949 ft 286 kts 156°
2026-05-07 12:04 50.59332 11.73076 9950 ft 286 kts 156°
2026-05-07 12:04 50.57537 11.74426 9948 ft 286 kts 156°
2026-05-07 12:05 50.55743 11.75774 9942 ft 285 kts 156°
2026-05-07 12:05 50.53952 11.77119 9945 ft 285 kts 156°
2026-05-07 12:05 50.52164 11.78460 9951 ft 285 kts 156°
2026-05-07 12:05 50.50374 11.79801 9945 ft 285 kts 156°
2026-05-07 12:06 50.48588 11.81138 9950 ft 284 kts 156°
2026-05-07 12:06 50.46799 11.82477 9952 ft 284 kts 156°
2026-05-07 12:06 50.45014 11.83781 9962 ft 283 kts 158°
2026-05-07 12:06 50.43202 11.85008 9963 ft 284 kts 158°
2026-05-07 12:07 50.41379 11.86219 9952 ft 285 kts 159°
2026-05-07 12:07 50.39557 11.87429 9951 ft 284 kts 158°
2026-05-07 12:07 50.37743 11.88644 9945 ft 284 kts 158°
2026-05-07 12:07 50.35928 11.89865 9940 ft 284 kts 158°
2026-05-07 12:08 50.34113 11.91090 9935 ft 284 kts 158°
2026-05-07 12:08 50.32300 11.92314 9942 ft 284 kts 158°
2026-05-07 12:08 50.30480 11.93541 9944 ft 286 kts 159°
2026-05-07 12:08 50.28658 11.94767 9944 ft 284 kts 158°
2026-05-07 12:09 50.26844 11.95989 9944 ft 284 kts 159°
2026-05-07 12:09 50.25029 11.97213 9941 ft 284 kts 159°
2026-05-07 12:09 50.23215 11.98436 9936 ft 284 kts 159°
2026-05-07 12:09 50.21399 11.99659 9938 ft 284 kts 159°
2026-05-07 12:10 50.19586 12.00881 9941 ft 284 kts 159°
2026-05-07 12:10 50.17939 12.01988 9939 ft 285 kts 159°
2026-05-07 12:10 50.16117 12.03213 9937 ft 285 kts 159°
2026-05-07 12:10 50.14305 12.04432 9935 ft 284 kts 159°
2026-05-07 12:11 50.12485 12.05653 9937 ft 284 kts 159°
2026-05-07 12:11 50.10674 12.06869 9932 ft 283 kts 159°
2026-05-07 12:11 50.08859 12.08083 9933 ft 285 kts 159°
2026-05-07 12:11 50.07040 12.09296 9932 ft 284 kts 159°
2026-05-07 12:12 50.05225 12.10508 9938 ft 284 kts 159°
2026-05-07 12:12 50.03407 12.11717 9939 ft 284 kts 159°
2026-05-07 12:12 50.01589 12.12928 9936 ft 283 kts 159°
2026-05-07 12:12 49.99836 12.14094 9943 ft 283 kts 159°
2026-05-07 12:13 49.98025 12.15297 9945 ft 283 kts 159°
2026-05-07 12:13 49.96209 12.16504 9941 ft 284 kts 160°
2026-05-07 12:13 49.94399 12.17706 9937 ft 283 kts 160°
2026-05-07 12:13 49.92615 12.18888 9936 ft 282 kts 160°
2026-05-07 12:14 49.90843 12.20063 9938 ft 283 kts 160°
2026-05-07 12:14 49.88997 12.21287 9938 ft 283 kts 160°
2026-05-07 12:14 49.87182 12.22488 9939 ft 284 kts 160°
2026-05-07 12:14 49.85367 12.23688 9939 ft 283 kts 160°
2026-05-07 12:15 49.83558 12.24883 9938 ft 283 kts 160°
2026-05-07 12:15 49.81747 12.26078 9940 ft 284 kts 160°
2026-05-07 12:15 49.79928 12.27278 9939 ft 283 kts 160°
2026-05-07 12:15 49.78116 12.28472 9938 ft 284 kts 160°
2026-05-07 12:16 49.76299 12.29669 9942 ft 284 kts 160°
2026-05-07 12:16 49.74481 12.30866 9939 ft 284 kts 160°
2026-05-07 12:16 49.72677 12.32103 9939 ft 285 kts 155°
2026-05-07 12:16 49.70998 12.33754 9937 ft 288 kts 146°
2026-05-07 12:17 49.69408 12.35644 9943 ft 288 kts 146°
2026-05-07 12:17 49.67815 12.37522 9937 ft 288 kts 146°
2026-05-07 12:17 49.66220 12.39390 9937 ft 288 kts 146°
2026-05-07 12:17 49.64623 12.41255 9938 ft 288 kts 146°
2026-05-07 12:18 49.63022 12.43121 9940 ft 288 kts 146°
2026-05-07 12:18 49.61424 12.44983 9939 ft 288 kts 146°
2026-05-07 12:18 49.59822 12.46847 9941 ft 288 kts 146°
2026-05-07 12:18 49.58223 12.48707 9948 ft 288 kts 146°
2026-05-07 12:19 49.56620 12.50573 9952 ft 289 kts 146°
2026-05-07 12:19 49.55018 12.52435 9948 ft 288 kts 146°
2026-05-07 12:19 49.53419 12.54289 9944 ft 287 kts 146°
2026-05-07 12:19 49.51820 12.56143 9945 ft 289 kts 147°
2026-05-07 12:20 49.50214 12.58004 9942 ft 289 kts 146°
2026-05-07 12:20 49.48609 12.59861 9947 ft 289 kts 146°
2026-05-07 12:20 49.47004 12.61719 9948 ft 289 kts 146°
2026-05-07 12:20 49.45398 12.63577 9948 ft 288 kts 147°
2026-05-07 12:21 49.44335 12.64804 9949 ft 289 kts 147°
2026-05-07 12:21 49.42795 12.66795 9942 ft 291 kts 140°
2026-05-07 12:21 49.41337 12.68941 9939 ft 291 kts 140°
2026-05-07 12:21 49.39874 12.71086 9938 ft 291 kts 140°
2026-05-07 12:22 49.38386 12.73207 9886 ft 291 kts 146°
2026-05-07 12:22 49.36607 12.74514 9759 ft 281 kts 172°
2026-05-07 12:22 49.34698 12.74478 9616 ft 273 kts 198°
2026-05-07 12:22 49.32958 12.73359 9493 ft 272 kts 208°
2026-05-07 12:23 49.31250 12.72113 9356 ft 272 kts 208°
2026-05-07 12:23 49.29557 12.70890 9231 ft 271 kts 207°
2026-05-07 12:23 49.27856 12.69675 9097 ft 270 kts 207°
2026-05-07 12:23 49.26151 12.68462 8968 ft 271 kts 207°
2026-05-07 12:24 49.24446 12.67254 8845 ft 269 kts 207°
2026-05-07 12:24 49.22752 12.66052 8701 ft 268 kts 207°
2026-05-07 12:24 49.21051 12.64845 8574 ft 269 kts 207°
2026-05-07 12:24 49.19369 12.63640 8438 ft 267 kts 207°
2026-05-07 12:25 49.17683 12.62428 8312 ft 268 kts 207°
2026-05-07 12:25 49.16002 12.61220 8169 ft 266 kts 207°
2026-05-07 12:25 49.14326 12.60018 8101 ft 268 kts 207°
2026-05-07 12:25 49.12636 12.58808 7973 ft 266 kts 207°
2026-05-07 12:26 49.10962 12.57615 7968 ft 267 kts 207°
2026-05-07 12:26 49.09275 12.56411 7977 ft 268 kts 207°
2026-05-07 12:26 49.07586 12.55207 7980 ft 268 kts 207°
2026-05-07 12:26 49.05901 12.54007 7984 ft 267 kts 207°
2026-05-07 12:27 49.04214 12.52815 7983 ft 268 kts 207°
2026-05-07 12:27 49.02507 12.51655 7979 ft 268 kts 206°
2026-05-07 12:27 49.00837 12.50536 7971 ft 256 kts 206°
2026-05-07 12:27 48.99242 12.49470 7980 ft 246 kts 207°
2026-05-07 12:28 48.97693 12.48428 7976 ft 247 kts 207°
2026-05-07 12:28 48.96121 12.47365 7981 ft 248 kts 207°
2026-05-07 12:28 48.94544 12.46298 7985 ft 248 kts 207°
2026-05-07 12:28 48.92970 12.45234 7983 ft 248 kts 207°
2026-05-07 12:29 48.91391 12.44167 7976 ft 248 kts 207°
2026-05-07 12:29 48.89818 12.43107 7985 ft 247 kts 207°
2026-05-07 12:29 48.88246 12.42047 7981 ft 248 kts 207°
2026-05-07 12:29 48.86668 12.40983 7985 ft 248 kts 207°
2026-05-07 12:30 48.85088 12.39918 7989 ft 248 kts 207°
2026-05-07 12:30 48.83510 12.38857 7987 ft 249 kts 207°
2026-05-07 12:30 48.81929 12.37794 7987 ft 248 kts 207°
2026-05-07 12:30 48.80352 12.36734 7987 ft 248 kts 207°
2026-05-07 12:31 48.78771 12.35673 7983 ft 248 kts 207°
2026-05-07 12:31 48.77195 12.34617 7986 ft 248 kts 207°
2026-05-07 12:31 48.75615 12.33557 7984 ft 249 kts 207°
2026-05-07 12:31 48.74035 12.32497 7984 ft 248 kts 207°
2026-05-07 12:32 48.72457 12.31441 7984 ft 248 kts 207°
2026-05-07 12:32 48.70876 12.30383 7988 ft 248 kts 207°
2026-05-07 12:32 48.69292 12.29323 7985 ft 248 kts 207°
2026-05-07 12:32 48.67714 12.28269 7984 ft 248 kts 207°
2026-05-07 12:33 48.65870 12.27037 7986 ft 249 kts 207°
2026-05-07 12:33 48.64289 12.25981 7988 ft 248 kts 207°
2026-05-07 12:33 48.62712 12.24932 7980 ft 247 kts 207°
2026-05-07 12:34 48.61144 12.23889 7769 ft 245 kts 207°
2026-05-07 12:34 48.59582 12.22848 7402 ft 246 kts 207°
2026-05-07 12:34 48.58014 12.21802 7021 ft 247 kts 207°
2026-05-07 12:34 48.56442 12.20755 6665 ft 247 kts 207°
2026-05-07 12:35 48.54858 12.19702 6298 ft 250 kts 207°
2026-05-07 12:35 48.53257 12.18638 5908 ft 253 kts 207°
2026-05-07 12:35 48.51636 12.17562 5522 ft 256 kts 207°
2026-05-07 12:35 48.50002 12.16480 5136 ft 259 kts 207°
2026-05-07 12:36 48.48343 12.15380 4654 ft 262 kts 207°
2026-05-07 12:36 48.46690 12.14285 4205 ft 264 kts 207°
2026-05-07 12:36 48.45017 12.13180 4023 ft 253 kts 207°
2026-05-07 12:36 48.43463 12.12156 3989 ft 240 kts 207°
2026-05-07 12:37 48.41965 12.11166 3993 ft 225 kts 207°
2026-05-07 12:37 48.40589 12.10257 3988 ft 213 kts 207°
2026-05-07 12:37 48.39235 12.09363 3998 ft 215 kts 207°
2026-05-07 12:37 48.37894 12.08480 3997 ft 203 kts 209°
2026-05-07 12:38 48.36829 12.07201 3997 ft 197 kts 244°
2026-05-07 12:38 48.36400 12.05301 3996 ft 195 kts 261°
2026-05-07 12:38 48.36219 12.03304 4001 ft 188 kts 265°
2026-05-07 12:38 48.36082 12.01360 3991 ft 186 kts 264°
2026-05-07 12:39 48.35937 11.99444 3996 ft 183 kts 264°
2026-05-07 12:39 48.35792 11.97612 3860 ft 173 kts 264°
2026-05-07 12:39 48.35658 11.95840 3589 ft 166 kts 264°
2026-05-07 12:39 48.35527 11.94146 3358 ft 159 kts 264°
2026-05-07 12:40 48.35403 11.92524 3129 ft 152 kts 264°
2026-05-07 12:40 48.35285 11.91008 2950 ft 139 kts 265°
2026-05-07 12:40 48.35182 11.89646 2755 ft 123 kts 265°
2026-05-07 12:40 48.35088 11.88417 2585 ft 115 kts 265°
2026-05-07 12:41 48.34999 11.87272 2434 ft 107 kts 265°
2026-05-07 12:41 48.34913 11.86125 2281 ft 114 kts 266°
2026-05-07 12:41 48.34823 11.84941 2119 ft 115 kts 265°
2026-05-07 12:41 48.34732 11.83772 1958 ft 112 kts 265°
2026-05-07 12:42 48.34642 11.82593 1800 ft 113 kts 267°
2026-05-07 12:42 48.34553 11.81412 1654 ft 117 kts 266°
2026-05-07 12:42 48.34459 11.80202 1504 ft 115 kts 267°
2026-05-07 12:42 48.34386 11.79256 1481 ft 51 kts 263°
2026-05-07 12:43 48.34364 11.78989 1471 ft 21 kts 263°
2026-05-07 12:43 48.34359 11.78774 1475 ft 20 kts 275°
2026-05-07 12:43 48.34386 11.78572 1485 ft 19 kts 288°
2026-05-07 12:43 48.34435 11.78391 1482 ft 18 kts 294°
2026-05-07 12:44 48.34472 11.78265 1478 ft 0 kts 293°
2026-05-07 12:45 48.34491 11.78196 1484 ft 18 kts 293°
2026-05-07 12:45 48.34592 11.78078 1480 ft 21 kts 351°
2026-05-07 12:46 48.34685 11.78152 1476 ft 11 kts 86°
2026-05-07 12:46 48.34695 11.78310 1480 ft 22 kts 83°
2026-05-07 12:46 48.34718 11.78590 1478 ft 30 kts 82°
2026-05-07 12:46 48.34729 11.78783 1483 ft 0 kts 84°
2026-05-07 12:47 48.34730 11.78798 1479 ft 4 kts 84°
2026-05-07 12:47 48.34735 11.78864 1478 ft 9 kts 84°
2026-05-07 12:47 48.34744 11.78980 1482 ft 14 kts 82°
2026-05-07 12:47 48.34760 11.79144 1482 ft 18 kts 82°
2026-05-07 12:48 48.34776 11.79352 1475 ft 22 kts 84°
2026-05-07 12:48 48.34821 11.79559 1477 ft 16 kts 30°
2026-05-07 12:48 48.34887 11.79553 1472 ft 9 kts 351°
2026-05-07 12:48 48.34967 11.79537 1479 ft 14 kts 353°
2026-05-07 12:49 48.35070 11.79519 1476 ft 13 kts 354°
2026-05-07 12:49 48.35108 11.79508 1476 ft 0 kts 325°
2026-05-07 12:49 48.35113 11.79477 1476 ft 4 kts 266°
2026-05-07 12:49 48.35108 11.79405 1478 ft 9 kts 268°